Location: Agadir-Ikarkaouin
(31.1503°N, 9.0246°W)
Time: 03:26:00
(UTC+00:00)

DELTA 2 R/B (1) - Pass Details

Date: 18 September 2020
Orbit: 790 x 803 km, 39.6° (Epoch: 23 October)

Event Time Altitude Azimuth Distance (km) Brightness Sun altitude
Rises 19:33:13 0° 296° (WNW) 3,276 8.4 -12.7°
Reaches altitude 10° 19:35:49 10° 303° (WNW) 2,346 7.2 -13.3°
Maximum altitude 19:41:05 44° 15° (NNE) 1,083 4.2 -14.4°
Enters shadow 19:44:32 20° 77° (ENE) 1,741 4.8 -15.1°
